Purpose,UTC,SCLOCK,Start_Ephemeris_s,End_Ephemeris_s,Spin_Counter,Sector,Start_Sector_Sclock_major,Subsector,Microsectors_Covered,Spin_Period_s,Staring,Sensor_Bitrate,Start,Stop,Year,Ave_doy,Radial_Distance,Latitude,Local_Time,MPQ_0.476,MPQ_0.500,MPQ_0.525,MPQ_0.552,MPQ_0.579,MPQ_0.608,MPQ_0.639,MPQ_0.670,MPQ_0.704,MPQ_0.739,MPQ_0.776,MPQ_0.815,MPQ_0.856,MPQ_0.898,MPQ_0.943,MPQ_0.991,MPQ_1.040,MPQ_1.092,MPQ_1.147,MPQ_1.204,MPQ_1.264,MPQ_1.327,MPQ_1.394,MPQ_1.464,MPQ_1.537,MPQ_1.614,MPQ_1.694,MPQ_1.779,MPQ_1.868,MPQ_1.961,MPQ_2.059,MPQ_2.162,MPQ_2.270,MPQ_2.384,MPQ_2.503,MPQ_2.628,MPQ_2.760,MPQ_2.898,MPQ_3.043,MPQ_3.195,MPQ_3.355,MPQ_3.522,MPQ_3.698,MPQ_3.883,MPQ_4.077,MPQ_4.281,MPQ_4.495,MPQ_4.720,MPQ_4.956,MPQ_5.204,MPQ_5.464,MPQ_5.737,MPQ_6.024,MPQ_6.325,MPQ_6.642,MPQ_6.974,MPQ_7.322,MPQ_7.689,MPQ_8.073,MPQ_8.477,MPQ_8.901,MPQ_9.346,MPQ_9.813,MPQ_10.303,MPQ_10.819,MPQ_11.360,MPQ_11.928,MPQ_12.524,MPQ_13.150,MPQ_13.808,MPQ_14.498,MPQ_15.223,MPQ_15.984,MPQ_16.783,MPQ_17.622,MPQ_18.504,MPQ_19.429,MPQ_20.400,MPQ_21.420,MPQ_22.491,MPQ_23.616,MPQ_24.796,MPQ_26.036,MPQ_27.338,MPQ_28.705,MPQ_30.140,MPQ_31.647,MPQ_33.230,MPQ_34.891,MPQ_36.636,MPQ_38.467,MPQ_40.391,MPQ_42.410,MPQ_44.531,MPQ_46.757,MPQ_49.095,MPQ_51.550,MPQ_54.128,MPQ_56.834,MPQ_59.676,MPQ_62.659,MPQ_65.792,MPQ_69.082,MPQ_72.536,MPQ_76.163,MPQ_79.971,MPQ_83.970,MPQ_88.168,MPQ_92.577,MPQ_97.205
valid_min,,,,,,,,,,,,,,,,,,,,,,,,,,,,,,,,,,,,,,,,,,,,,,,,,,,,,,,,,,,,,,,,,,,,,,,,,,,,,,,,,,,,,,,,,,,,,,,,,,,,,,,,,,,,,,,,,,,,,,,,,,,,,,,,,,
valid_max,,,,,,,,,,,,,,,,,,,,,,,,,,,,,,,,,,,,,,,,,,,,,,,,,,,,,,,,,,,,,,,,,,,,,,,,,,,,,,,,,,,,,,,,,,,,,,,,,,,,,,,,,,,,,,,,,,,,,,,,,,,,,,,,,,
min,,,,,,,,,,,,,,,,,,,,,,,,,,,,,,,,,,,,,,,,,,,,,,,,,,,,,,,,,,,,,,,,,,,,,,,,,,,,,,,,,,,,,,,,,,,,,,,,,,,,,,,,,,,,,,,,,,,,,,,,,,,,,,,,,,
max,,,,,,,,,,,,,,,,,,,,,,,,,,,,,,,,,,,,,,,,,,,,,,,,,,,,,,,,,,,,,,,,,,,,,,,,,,,,,,,,,,,,,,,,,,,,,,,,,,,,,,,,,,,,,,,,,,,,,,,,,,,,,,,,,,
mean,,,,,,,,,,,,,,,,,,,,,,,,,,,,,,,,,,,,,,,,,,,,,,,,,,,,,,,,,,,,,,,,,,,,,,,,,,,,,,,,,,,,,,,,,,,,,,,,,,,,,,,,,,,,,,,,,,,,,,,,,,,,,,,,,,
stdev,,,,,,,,,,,,,,,,,,,,,,,,,,,,,,,,,,,,,,,,,,,,,,,,,,,,,,,,,,,,,,,,,,,,,,,,,,,,,,,,,,,,,,,,,,,,,,,,,,,,,,,,,,,,,,,,,,,,,,,,,,,,,,,,,,
"sci",2007-200T00:30,"1/1563498271:185",2.380752651836237E+08,2.380788651836225E+08,-1,-1,-1,-1,-1,-1,-1,-1,2007-200T00:00,2007-200T01:00,2007,200.0208,20.703,0.301,18.758,0,0,0,0,0,0,0,0,6,6,13,12,61,189,230,326,237,116,37,26,15,8,15,8,13,12,10,31,35,39,84,80,38,13,13,3,3,6,8,2,4,9,5,7,19,2,3,2,2,2,2,1,5,4,3,3,2,2,4,4,4,4,9,0,2,6,5,5,14,14,29,82,125,96,95,71,40,32,15,11,9,10,3,2,3,7,3,5,6,4,4,1,3,3,2,4,1,1,2,1,3,0,3,0,0,0,0,0,0,0
"sci",2007-200T01:30,"1/1563501871:191",2.380788651836225E+08,2.380824651836214E+08,-1,-1,-1,-1,-1,-1,-1,-1,2007-200T01:00,2007-200T02:00,2007,200.0625,20.388,0.303,18.793,0,0,0,0,0,0,0,1,12,6,14,26,100,259,378,528,407,166,71,30,18,17,16,15,23,9,11,26,41,89,120,128,59,35,9,9,6,10,10,7,5,5,8,10,20,9,5,2,4,1,2,2,1,3,2,2,1,3,6,2,3,6,4,6,6,3,9,7,5,20,37,77,187,152,102,98,57,37,28,26,12,8,7,6,6,5,7,5,7,0,2,4,4,0,1,1,1,2,1,2,2,1,1,1,1,0,0,0,0,0
"sci",2007-200T02:30,"1/1563505471:197",2.380824651836214E+08,2.380860651836203E+08,-1,-1,-1,-1,-1,-1,-1,-1,2007-200T02:00,2007-200T03:00,2007,200.1042,20.051,0.302,18.835,0,0,0,0,0,0,0,1,10,23,19,30,81,325,459,728,593,200,74,44,29,20,16,10,17,14,12,23,47,96,165,158,91,25,16,12,15,3,4,9,7,6,8,13,17,9,7,1,6,5,4,4,3,1,0,3,5,2,6,8,7,3,5,10,2,7,13,8,19,27,56,112,171,169,151,101,78,44,23,20,18,9,8,7,7,10,7,8,7,3,7,7,2,2,5,3,2,2,4,3,0,1,1,0,0,0,0,0,0,0
"sci",2007-200T03:30,"1/1563509071:203",2.380860651836203E+08,2.380896651836191E+08,-1,-1,-1,-1,-1,-1,-1,-1,2007-200T03:00,2007-200T04:00,2007,200.1458,19.718,0.302,18.880,0,0,0,0,0,0,0,2,14,10,11,31,76,227,370,613,476,185,57,41,19,19,21,10,15,9,21,25,45,67,112,110,52,25,10,7,3,6,8,5,4,5,5,9,9,6,4,3,2,0,3,2,4,0,3,1,3,5,5,5,5,4,3,3,2,4,0,6,7,17,35,65,111,124,72,69,32,20,18,10,7,9,11,5,6,8,4,1,2,5,1,2,2,2,3,1,0,0,3,1,0,2,0,1,0,0,0,0,0,0
"sci",2007-200T04:30,"1/1563512671:209",2.380896651836191E+08,2.380932651836180E+08,-1,-1,-1,-1,-1,-1,-1,-1,2007-200T04:00,2007-200T05:00,2007,200.1875,19.384,0.301,18.927,0,0,0,0,0,0,0,1,3,12,18,20,88,245,338,454,355,121,57,34,17,13,13,7,15,18,11,25,47,90,82,78,47,13,14,15,8,7,4,3,8,11,3,7,14,2,2,2,4,2,3,1,2,3,0,1,1,2,4,3,2,3,2,1,1,0,5,8,7,4,25,67,136,108,86,72,38,24,9,18,8,5,6,2,3,4,0,5,6,4,3,2,2,2,3,0,1,1,2,1,1,1,3,0,1,0,0,0,0,0
"sci",2007-200T05:30,"1/1563516271:215",2.380932651836180E+08,2.380968651836168E+08,-1,-1,-1,-1,-1,-1,-1,-1,2007-200T05:00,2007-200T06:00,2007,200.2292,19.047,0.300,18.976,0,0,0,0,0,0,0,0,10,17,18,20,97,292,369,500,395,118,53,23,22,6,15,9,15,15,8,19,36,99,145,114,49,30,16,12,9,7,4,7,2,4,0,6,11,6,5,3,3,5,5,4,0,1,3,0,3,1,1,10,5,5,2,4,3,6,7,7,11,13,33,100,162,135,112,77,55,26,29,23,14,10,3,3,7,6,9,4,6,3,6,4,1,5,1,2,3,2,0,1,1,0,4,2,2,0,0,0,0,0
"sci",2007-200T06:30,"1/1563519871:220",2.380968651836168E+08,2.381004651836157E+08,-1,-1,-1,-1,-1,-1,-1,-1,2007-200T06:00,2007-200T07:00,2007,200.2708,18.707,0.299,19.026,0,0,0,0,0,0,0,1,11,18,27,28,112,312,487,772,591,192,75,50,27,28,21,15,13,12,19,31,47,109,195,165,109,41,19,13,17,11,4,12,8,7,9,13,18,11,4,7,3,2,7,5,3,2,3,5,3,4,6,5,6,2,2,6,9,2,9,6,11,14,36,84,145,112,107,90,65,36,21,19,14,7,6,9,6,4,3,4,3,4,3,5,5,4,2,3,0,3,1,2,2,1,1,1,2,0,0,0,0,0
"sci",2007-200T07:30,"1/1563523471:226",2.381004651836157E+08,2.381040651836146E+08,-1,-1,-1,-1,-1,-1,-1,-1,2007-200T07:00,2007-200T08:00,2007,200.3125,18.364,0.298,19.079,0,0,0,0,0,0,0,1,14,21,27,33,94,308,523,845,690,257,88,50,28,30,19,12,15,21,14,37,66,105,180,177,106,42,14,21,14,7,11,9,5,11,5,5,21,10,4,3,0,4,5,1,0,4,3,3,3,2,11,5,8,8,6,6,8,9,5,9,18,20,38,116,218,158,138,114,64,37,19,26,13,15,6,9,5,7,9,4,5,1,6,4,0,3,2,0,0,3,2,1,4,0,1,2,3,0,0,0,0,0
"sci",2007-200T08:30,"1/1563527071:232",2.381040651836146E+08,2.381076651836134E+08,-1,-1,-1,-1,-1,-1,-1,-1,2007-200T08:00,2007-200T09:00,2007,200.3542,18.019,0.297,19.133,0,0,0,0,0,0,0,0,5,18,21,13,99,301,526,862,707,265,101,50,35,28,29,19,26,12,19,24,52,119,177,195,108,50,22,19,7,6,10,4,4,5,5,13,7,11,8,3,4,3,2,3,3,4,7,2,1,4,3,6,7,8,6,7,4,5,10,4,8,15,32,96,195,132,112,89,58,28,25,15,12,13,5,5,7,9,9,4,5,2,3,1,1,2,3,1,1,1,3,1,2,1,1,2,1,0,0,0,0,0
"sci",2007-200T09:30,"1/1563530671:238",2.381076651836134E+08,2.381112651836123E+08,-1,-1,-1,-1,-1,-1,-1,-1,2007-200T09:00,2007-200T10:00,2007,200.3958,17.671,0.296,19.190,0,0,0,0,0,0,0,1,14,17,13,27,117,323,488,742,552,215,74,46,27,18,10,17,22,13,14,21,51,111,186,189,109,34,20,14,9,10,9,15,6,9,5,13,18,9,5,3,4,3,5,1,5,5,4,2,3,6,5,8,1,6,4,6,2,4,7,10,15,30,38,126,218,180,105,112,78,34,28,21,18,12,12,8,6,3,7,6,5,4,1,3,5,6,0,1,3,3,0,2,3,4,0,0,1,0,0,0,0,0
"sci",2007-200T10:30,"1/1563534271:244",2.381112651836123E+08,2.381148651836112E+08,-1,-1,-1,-1,-1,-1,-1,-1,2007-200T10:00,2007-200T11:00,2007,200.4375,17.319,0.295,19.249,0,0,0,0,0,0,0,0,14,14,25,31,134,329,471,679,570,197,67,50,29,25,29,19,12,16,20,21,53,123,169,159,87,36,11,19,15,8,7,8,4,5,3,15,18,12,6,3,2,7,3,1,3,2,1,5,2,4,14,11,10,8,7,9,5,12,12,18,14,24,53,140,219,174,160,117,77,62,32,26,20,10,11,16,12,9,4,3,6,9,4,3,3,2,2,1,4,2,3,1,0,2,2,1,2,0,0,0,0,0
"sci",2007-200T11:30,"1/1563537871:250",2.381148651836112E+08,2.381184651836100E+08,-1,-1,-1,-1,-1,-1,-1,-1,2007-200T11:00,2007-200T12:00,2007,200.4792,16.964,0.293,19.310,0,0,0,0,0,0,0,0,18,18,31,51,167,453,518,654,437,156,69,30,22,20,22,15,16,8,12,23,61,100,158,123,73,34,18,9,9,7,6,6,9,8,6,17,15,10,4,6,2,3,10,5,2,3,4,1,6,5,7,4,4,7,2,6,8,5,12,16,17,18,52,142,294,233,220,171,101,65,36,24,21,19,8,7,14,11,18,14,8,7,6,4,7,2,9,6,2,0,3,0,2,1,0,1,1,0,0,0,0,0
"sci",2007-200T12:30,"1/1563541471:255",2.381184651836100E+08,2.381220651836089E+08,-1,-1,-1,-1,-1,-1,-1,-1,2007-200T12:00,2007-200T13:00,2007,200.5208,16.607,0.291,19.374,0,0,0,0,0,0,0,1,7,26,27,27,160,456,741,1024,864,271,100,65,38,38,22,25,20,15,17,29,68,155,232,230,126,49,19,28,9,12,14,7,10,14,8,22,25,15,8,5,2,1,4,6,10,6,4,6,4,4,12,11,12,6,9,14,10,17,15,16,34,51,96,179,352,316,268,226,108,92,61,39,30,23,24,15,14,15,12,16,13,4,9,9,5,6,5,4,2,6,7,1,0,6,5,1,2,0,0,0,0,0
"sci",2007-200T13:30,"1/1563545072:5",2.381220651836089E+08,2.381256651836078E+08,-1,-1,-1,-1,-1,-1,-1,-1,2007-200T13:00,2007-200T14:00,2007,200.5625,16.246,0.290,19.441,0,0,0,0,0,0,0,1,18,34,38,59,170,479,744,1107,831,292,111,55,41,35,23,25,21,23,22,51,90,163,243,242,117,46,24,16,19,6,13,10,9,12,8,21,29,19,9,6,7,6,5,4,7,9,8,5,7,7,10,15,7,10,7,10,11,8,17,21,27,37,79,189,402,293,274,213,110,73,51,32,30,18,20,21,16,14,17,10,16,6,15,9,2,1,2,3,3,3,3,0,5,1,5,3,1,0,0,0,0,0
"sci",2007-200T14:30,"1/1563548672:11",2.381256651836078E+08,2.381292651836066E+08,-1,-1,-1,-1,-1,-1,-1,-1,2007-200T14:00,2007-200T15:00,2007,200.6042,15.881,0.288,19.511,0,0,0,0,0,0,0,2,8,32,39,79,128,501,702,951,759,250,81,57,53,29,27,31,43,34,33,169,123,201,244,207,134,53,19,16,16,16,15,9,5,14,14,14,32,14,6,9,2,0,5,8,5,6,5,7,6,12,15,17,8,13,7,5,5,12,11,13,18,46,87,228,398,331,250,213,78,69,40,38,21,21,20,18,4,10,11,9,9,11,10,7,9,5,3,2,2,0,2,6,5,2,1,3,1,0,0,0,0,0
"sci",2007-200T15:30,"1/1563552272:17",2.381292651836066E+08,2.381328651836055E+08,-1,-1,-1,-1,-1,-1,-1,-1,2007-200T15:00,2007-200T16:00,2007,200.6458,15.514,0.286,19.584,0,0,0,0,0,0,0,5,13,40,65,149,261,865,902,1006,727,232,107,74,43,31,29,29,43,50,94,342,286,289,251,170,80,46,17,24,12,11,13,10,8,14,16,15,15,5,8,3,2,5,5,3,4,3,1,6,2,7,10,15,6,2,5,8,8,12,12,7,7,30,61,175,372,227,200,127,67,48,31,27,23,11,14,9,9,2,13,7,1,3,3,1,2,1,3,3,1,1,2,3,0,3,0,1,2,0,0,0,0,0
"sci",2007-200T16:30,"1/1563555872:23",2.381328651836055E+08,2.381364651836044E+08,-1,-1,-1,-1,-1,-1,-1,-1,2007-200T16:00,2007-200T17:00,2007,200.6875,15.143,0.283,19.660,0,0,0,0,0,0,0,3,39,38,102,202,649,1830,1463,1531,843,291,125,68,50,48,43,38,42,60,157,404,549,570,466,238,129,45,34,27,10,17,16,15,19,27,17,21,13,9,7,9,3,7,5,8,1,8,2,6,7,7,9,8,1,6,2,5,10,9,9,10,14,21,47,165,282,217,159,123,46,39,29,16,10,7,5,5,5,6,7,6,2,2,2,4,3,2,0,0,4,2,1,1,2,0,1,0,0,0,0,0,0,0
"sci",2007-200T17:30,"1/1563559472:29",2.381364651836044E+08,2.381400651836032E+08,-1,-1,-1,-1,-1,-1,-1,-1,2007-200T17:00,2007-200T18:00,2007,200.7292,14.768,0.281,19.741,0,0,0,0,0,0,0,3,42,37,83,168,631,2037,1674,1856,1015,382,160,68,45,40,34,36,41,35,90,208,371,494,501,409,165,58,18,20,21,11,22,19,12,12,12,21,26,15,7,3,5,3,7,5,1,5,3,1,3,6,8,2,5,1,1,3,3,8,11,12,14,13,58,119,202,126,96,63,40,18,16,14,13,10,3,3,3,7,9,4,4,2,3,3,2,0,1,0,1,1,0,1,0,1,4,1,3,0,0,0,0,0
"sci",2007-200T18:30,"1/1563563072:34",2.381400651836032E+08,2.381436651836021E+08,-1,-1,-1,-1,-1,-1,-1,-1,2007-200T18:00,2007-200T19:00,2007,200.7708,14.391,0.278,19.826,0,0,0,0,0,0,0,0,17,18,63,78,325,946,984,1148,746,286,100,50,37,29,28,18,21,30,26,48,126,179,278,210,120,29,29,22,14,5,11,10,6,11,12,16,21,6,6,4,2,3,3,1,0,7,0,6,3,4,6,6,8,5,2,2,4,2,4,8,9,11,25,110,144,107,96,66,39,27,12,11,15,7,1,7,6,7,2,5,3,3,4,4,3,0,1,3,3,0,1,1,0,0,1,0,0,0,0,0,0,0
"sci",2007-200T19:30,"1/1563566672:40",2.381436651836021E+08,2.381472651836010E+08,-1,-1,-1,-1,-1,-1,-1,-1,2007-200T19:00,2007-200T20:00,2007,200.8125,14.010,0.275,19.915,0,0,0,0,0,0,0,2,4,23,38,46,165,516,667,906,619,229,89,51,32,24,16,13,22,17,18,35,59,114,179,149,90,22,21,11,10,11,7,8,2,7,12,14,32,13,10,3,5,4,2,4,1,3,1,0,4,8,7,4,5,1,5,6,5,3,7,8,11,20,33,82,112,96,71,43,36,18,16,9,2,5,5,3,6,5,8,2,2,1,2,2,2,0,0,2,0,2,0,0,1,0,1,1,2,0,0,0,0,0
"sci",2007-200T20:30,"1/1563570272:46",2.381472651836010E+08,2.381508651835998E+08,-1,-1,-1,-1,-1,-1,-1,-1,2007-200T20:00,2007-200T21:00,2007,200.8542,13.626,0.271,20.010,0,0,0,0,0,0,0,0,29,40,59,94,344,1062,1139,1354,854,303,139,59,33,36,29,21,29,40,34,104,146,240,277,230,130,41,14,17,16,12,9,6,9,14,17,26,22,13,3,7,2,1,5,4,3,3,1,4,4,3,18,8,8,4,5,3,4,5,10,10,11,19,38,133,222,181,124,84,36,37,17,13,11,8,7,2,7,6,5,6,3,7,1,1,3,3,1,2,3,1,0,2,4,1,3,0,2,0,0,0,0,0
"sci",2007-200T21:30,"1/1563573872:52",2.381508651835998E+08,2.381544651835987E+08,-1,-1,-1,-1,-1,-1,-1,-1,2007-200T21:00,2007-200T22:00,2007,200.8958,13.238,0.267,20.110,0,0,0,0,0,0,0,2,24,45,74,93,349,1158,1529,2014,1583,512,184,91,69,62,38,35,50,36,34,87,170,325,486,412,220,91,46,37,14,23,21,18,18,10,26,36,34,6,12,8,5,5,9,6,9,2,4,12,8,11,12,13,9,6,9,5,6,8,10,16,23,28,63,195,310,225,196,137,78,41,42,23,19,10,9,11,14,9,14,12,8,5,6,5,3,2,4,2,1,1,2,5,1,1,1,2,0,0,0,0,0,0
"sci",2007-200T22:30,"1/1563577472:58",2.381544651835987E+08,2.381580651835976E+08,-1,-1,-1,-1,-1,-1,-1,-1,2007-200T22:00,2007-200T23:00,2007,200.9375,12.848,0.263,20.216,0,0,0,0,0,0,0,1,26,41,58,107,315,1060,1305,1785,1470,467,172,101,86,47,40,43,54,39,46,110,155,257,376,333,190,75,33,27,17,22,17,18,14,14,22,34,36,16,6,3,4,7,8,5,3,6,5,5,5,9,18,8,9,9,7,7,12,5,13,14,10,28,61,154,277,218,198,116,74,56,25,21,11,9,13,13,17,5,4,7,6,5,0,5,3,6,3,6,1,3,1,1,1,2,4,0,1,0,0,0,0,0
"sci",2007-200T23:30,"1/1563581072:64",2.381580651835976E+08,2.381616651835964E+08,-1,-1,-1,-1,-1,-1,-1,-1,2007-200T23:00,2007-201T00:00,2007,200.9792,12.454,0.258,20.328,0,0,0,0,0,0,0,3,24,32,92,158,332,1215,1480,2168,1770,640,273,134,85,57,62,50,46,55,54,152,216,289,454,362,233,62,47,39,30,15,23,19,17,28,28,53,44,23,5,6,10,8,12,8,8,6,5,12,7,8,22,18,11,6,9,7,9,10,10,12,25,34,76,258,407,289,243,190,84,53,46,20,19,20,17,14,12,12,14,7,8,8,3,4,3,6,2,7,2,2,2,5,3,1,6,2,3,0,0,0,0,0
"sci",2007-201T00:30,"1/1563584672:69",2.381616651835964E+08,2.381652651835953E+08,-1,-1,-1,-1,-1,-1,-1,-1,2007-201T00:00,2007-201T01:00,2007,201.0208,12.057,0.253,20.449,0,0,0,0,0,0,0,5,28,71,118,233,417,1493,1762,2098,1451,523,205,122,78,63,58,50,45,57,68,259,335,350,470,373,193,66,40,28,25,29,14,14,18,31,38,62,54,18,12,7,9,8,4,7,6,7,4,9,13,15,18,23,10,5,10,10,7,12,19,15,21,43,94,318,627,434,382,278,130,75,44,35,32,23,19,12,17,12,11,15,9,12,9,5,8,4,6,3,8,5,2,3,2,6,2,1,3,1,0,0,0,0
"sci",2007-201T01:30,"1/1563588272:75",2.381652651835953E+08,2.381688651835942E+08,-1,-1,-1,-1,-1,-1,-1,-1,2007-201T01:00,2007-201T02:00,2007,201.0625,11.658,0.247,20.577,0,0,0,0,0,0,0,2,14,57,82,160,261,751,854,992,677,275,98,73,43,37,55,31,42,59,73,213,276,335,431,367,203,71,42,23,36,25,20,15,15,18,27,42,52,18,13,7,12,8,6,12,1,4,5,5,14,12,23,21,10,5,6,5,5,14,17,16,22,29,93,223,454,378,316,237,96,65,56,38,39,16,15,13,14,10,12,21,10,7,6,8,8,0,0,4,4,6,3,4,3,4,2,3,5,0,0,0,0,0
"sci",2007-201T02:30,"1/1563591872:81",2.381688651835942E+08,2.381724651835930E+08,-1,-1,-1,-1,-1,-1,-1,-1,2007-201T02:00,2007-201T03:00,2007,201.1042,11.256,0.240,20.714,0,0,0,0,0,0,0,6,50,96,177,382,709,2418,2862,3187,2444,807,369,199,118,89,97,92,87,110,156,655,621,686,735,518,296,132,55,57,40,27,38,20,24,46,39,56,51,27,17,15,7,18,11,7,13,5,2,12,8,21,34,26,13,15,13,7,5,15,23,26,32,58,134,365,797,552,441,348,163,91,72,54,46,42,24,23,21,23,15,6,12,13,7,7,5,5,8,8,7,6,5,5,8,4,5,1,3,0,0,0,0,0
"sci",2007-201T03:30,"1/1563595472:87",2.381724651835930E+08,2.381760651835919E+08,-1,-1,-1,-1,-1,-1,-1,-1,2007-201T03:00,2007-201T04:00,2007,201.1458,10.853,0.232,20.862,0,0,0,0,0,0,0,6,97,154,264,554,1336,4434,4120,4458,2784,980,475,268,138,138,118,98,114,132,336,899,1051,1264,1040,661,357,151,90,70,58,38,39,37,41,57,52,57,59,16,14,19,15,13,10,9,8,11,6,11,19,12,48,28,23,14,13,23,17,17,18,25,26,61,148,436,1039,813,623,469,189,136,100,44,50,34,39,24,23,24,22,20,9,7,13,12,4,7,4,4,5,2,6,1,4,4,7,3,2,0,0,0,0,0
"sci",2007-201T04:30,"1/1563599072:93",2.381760651835919E+08,2.381796651835908E+08,-1,-1,-1,-1,-1,-1,-1,-1,2007-201T04:00,2007-201T05:00,2007,201.1875,10.447,0.224,21.021,0,0,0,0,0,0,0,4,26,49,100,178,272,698,681,702,561,217,91,68,43,47,48,30,42,52,98,180,334,407,428,302,164,70,28,41,34,12,15,18,16,30,32,26,30,17,7,8,8,5,13,2,2,8,7,3,7,15,25,17,11,4,10,9,8,6,13,21,17,23,49,156,340,270,206,165,73,58,31,23,18,8,14,10,10,7,9,7,7,3,1,4,5,5,2,2,1,5,0,0,2,3,0,1,1,0,0,0,0,0
"sci",2007-201T05:30,"1/1563602672:99",2.381796651835908E+08,2.381832651835896E+08,-1,-1,-1,-1,-1,-1,-1,-1,2007-201T05:00,2007-201T06:00,2007,201.2292,10.041,0.214,21.193,0,0,0,0,0,0,0,5,37,58,130,182,438,1207,1315,1415,1020,340,164,84,59,56,47,40,59,45,77,148,322,483,625,472,262,98,60,31,22,31,22,16,24,22,24,32,26,14,12,8,5,4,5,7,6,5,9,6,11,11,26,14,8,5,6,10,8,5,4,9,15,24,54,171,419,302,261,170,98,55,28,32,20,15,10,10,9,6,14,14,10,9,6,5,5,5,3,3,0,6,2,0,4,1,1,5,3,0,0,0,0,0
"sci",2007-201T06:30,"1/1563606272:104",2.381832651835896E+08,2.381868651835885E+08,-1,-1,-1,-1,-1,-1,-1,-1,2007-201T06:00,2007-201T07:00,2007,201.2708,9.635,0.203,21.379,0,0,0,0,0,0,0,6,31,95,135,197,430,1293,1386,1419,1047,322,153,94,69,49,44,29,43,53,72,132,283,382,508,465,207,71,47,32,33,19,15,16,18,28,37,59,48,17,17,3,3,8,15,6,4,4,6,2,6,7,39,26,9,14,7,12,13,11,12,11,21,26,65,228,463,410,294,235,131,59,49,33,20,21,10,13,9,13,8,7,12,4,6,5,4,4,3,4,4,1,1,2,4,1,5,0,0,0,0,0,0,0
"sci",2007-201T07:30,"1/1563609872:110",2.381868651835885E+08,2.381904651835874E+08,-1,-1,-1,-1,-1,-1,-1,-1,2007-201T07:00,2007-201T08:00,2007,201.3125,9.229,0.190,21.582,0,0,0,0,0,0,0,6,38,60,109,211,428,1244,1501,1594,1267,507,203,118,59,65,56,38,39,34,67,91,175,350,615,523,285,102,49,22,37,22,24,22,16,14,21,39,40,25,12,5,10,10,7,3,11,9,1,8,6,18,30,28,14,8,5,11,5,10,13,6,15,27,79,184,387,317,263,222,99,77,32,37,27,12,11,21,9,13,16,10,13,8,10,5,3,5,3,2,1,2,3,5,3,2,4,0,0,0,0,0,0,0
"sci",2007-201T08:30,"1/1563613472:116",2.381904651835874E+08,2.381940651835862E+08,-1,-1,-1,-1,-1,-1,-1,-1,2007-201T08:00,2007-201T09:00,2007,201.3542,8.826,0.176,21.804,0,0,0,0,0,0,0,7,27,69,95,174,300,1156,1407,1793,1478,593,252,137,79,61,62,42,38,42,53,72,121,199,430,478,295,124,62,33,41,16,27,15,15,12,22,32,32,24,10,11,6,12,5,8,11,12,10,7,8,16,34,41,24,18,13,19,15,14,28,27,33,47,95,172,307,271,235,191,116,70,49,38,22,26,22,20,10,10,9,11,14,11,8,6,3,8,7,1,3,4,2,0,4,2,3,2,0,0,0,0,0,0
"sci",2007-201T09:30,"1/1563617072:122",2.381940651835862E+08,2.381976651835851E+08,-1,-1,-1,-1,-1,-1,-1,-1,2007-201T09:00,2007-201T10:00,2007,201.3958,8.426,0.159,22.047,0,0,0,0,0,0,0,10,24,55,89,160,333,1322,1281,1384,1075,359,178,119,70,55,43,30,41,27,17,43,78,130,132,158,100,54,24,16,14,14,11,14,12,21,14,30,24,16,6,7,3,6,9,9,6,6,9,8,5,12,30,21,20,10,10,10,12,9,15,28,25,40,70,147,292,252,231,150,96,59,50,28,29,13,14,11,7,13,4,8,7,8,8,5,2,2,2,1,5,0,4,2,8,3,2,6,2,0,0,0,0,0
"sci",2007-201T10:30,"1/1563620672:128",2.381976651835851E+08,2.382012651835840E+08,-1,-1,-1,-1,-1,-1,-1,-1,2007-201T10:00,2007-201T11:00,2007,201.4375,8.032,0.141,22.313,0,0,0,0,0,0,0,7,26,62,88,152,318,1117,1110,1131,806,305,158,50,49,46,27,21,29,18,11,30,67,108,128,116,76,34,20,10,9,11,3,5,6,10,10,17,30,12,7,4,7,9,5,3,4,7,3,7,8,9,21,16,10,6,16,9,8,5,20,9,26,36,41,145,250,222,189,122,80,55,29,29,22,11,11,11,9,7,7,4,12,6,8,9,1,4,2,2,2,6,3,0,1,1,2,1,0,0,0,0,0,0
"sci",2007-201T11:30,"1/1563624272:134",2.382012651835840E+08,2.382048651835828E+08,-1,-1,-1,-1,-1,-1,-1,-1,2007-201T11:00,2007-201T12:00,2007,201.4792,7.646,0.119,22.607,0,0,0,0,0,0,0,2,14,42,69,116,168,578,758,800,685,304,94,66,31,35,30,22,19,12,17,21,19,55,107,124,70,24,14,9,3,10,8,7,8,7,11,13,18,9,5,2,9,8,6,6,8,9,2,3,3,7,22,12,13,14,9,16,7,10,7,9,15,28,31,86,141,120,108,81,65,33,24,21,20,16,7,8,10,6,5,9,4,6,8,4,2,2,4,3,2,7,2,2,1,6,3,2,4,0,0,0,0,0
"sci",2007-201T12:30,"1/1563627872:139",2.382048651835828E+08,2.382084651835817E+08,-1,-1,-1,-1,-1,-1,-1,-1,2007-201T12:00,2007-201T13:00,2007,201.5208,7.272,0.095,22.932,0,0,0,0,0,0,0,2,5,34,57,66,59,256,365,315,358,143,53,45,30,11,11,1,12,15,6,14,13,19,44,30,22,18,8,7,3,4,4,6,1,7,4,2,8,6,1,3,2,4,3,4,3,3,3,5,5,3,14,10,13,7,5,9,9,5,6,6,10,16,33,41,68,57,35,35,28,22,12,9,9,8,10,4,9,6,6,0,4,2,3,2,1,2,1,2,0,1,0,0,1,0,3,3,0,0,0,0,0,0
"sci",2007-201T13:30,"1/1563631472:145",2.382084651835817E+08,2.382120651835806E+08,-1,-1,-1,-1,-1,-1,-1,-1,2007-201T13:00,2007-201T14:00,2007,201.5625,6.914,0.067,23.291,0,0,0,0,0,0,0,2,7,27,62,35,37,143,193,97,167,50,26,25,18,9,8,11,14,6,2,6,8,3,20,16,11,6,6,2,0,1,4,4,2,2,4,2,4,4,2,3,5,2,4,5,3,4,3,2,2,3,5,9,14,5,6,4,7,4,10,3,6,9,18,29,39,18,17,21,11,10,10,8,5,3,3,4,2,2,9,3,3,5,5,2,0,2,3,0,3,2,2,1,3,1,1,0,0,0,0,0,0,0
"sci",2007-201T14:30,"1/1563635072:151",2.382120651835806E+08,2.382156651835794E+08,-1,-1,-1,-1,-1,-1,-1,-1,2007-201T14:00,2007-201T15:00,2007,201.6042,6.576,0.035,23.688,0,0,0,0,0,0,0,1,8,18,32,44,48,138,154,102,105,55,19,18,17,7,5,6,6,8,2,12,12,6,16,15,12,5,6,1,4,2,3,3,1,2,1,4,1,1,0,2,3,5,2,3,3,1,3,4,4,4,10,10,4,6,2,8,3,4,9,6,15,13,13,16,30,34,20,17,7,7,2,4,5,3,5,6,4,2,3,6,6,3,3,4,6,2,3,4,0,3,1,1,1,3,3,3,0,0,0,0,0,0
"sci",2007-201T15:30,"1/1563638672:157",2.382156651835794E+08,2.382192651835783E+08,-1,-1,-1,-1,-1,-1,-1,-1,2007-201T15:00,2007-201T16:00,2007,201.6458,6.265,-0.000,0.126,0,0,0,0,0,0,0,6,11,29,39,37,47,128,291,394,408,173,82,48,34,21,11,9,12,12,9,9,12,11,41,54,47,9,9,6,8,7,2,2,5,3,4,6,7,5,3,1,6,3,3,2,5,2,4,3,5,5,7,6,7,8,11,7,7,4,5,6,6,10,16,19,27,23,18,21,15,14,6,5,7,8,3,2,1,3,3,3,2,5,7,4,7,8,2,2,2,1,3,6,3,0,2,4,4,0,0,0,0,0
"sci",2007-201T16:30,"1/1563642272:163",2.382192651835783E+08,2.382228651835772E+08,-1,-1,-1,-1,-1,-1,-1,-1,2007-201T16:00,2007-201T17:00,2007,201.6875,5.988,-0.039,0.608,0,0,0,0,0,0,0,2,12,24,52,57,35,101,120,37,94,54,30,38,13,9,7,7,5,5,3,9,5,8,10,5,7,2,2,3,1,6,1,1,1,4,0,4,5,6,3,2,3,1,7,2,4,5,2,2,5,8,7,5,3,4,5,5,3,4,1,3,1,1,4,17,20,8,5,4,5,4,3,2,2,4,3,3,2,4,2,1,2,1,1,3,2,2,2,1,3,1,3,1,3,0,2,2,2,0,0,0,0,0
"sci",2007-201T17:30,"1/1563645872:169",2.382228651835772E+08,2.382264651835760E+08,-1,-1,-1,-1,-1,-1,-1,-1,2007-201T17:00,2007-201T18:00,2007,201.7292,5.753,-0.080,1.133,0,0,0,0,0,0,0,2,6,25,43,98,40,267,334,185,235,107,88,45,22,15,17,6,13,7,4,18,9,14,12,18,11,7,5,3,7,2,2,5,6,4,3,3,2,4,6,6,8,2,4,6,3,4,3,3,6,6,4,14,8,6,10,4,3,2,4,2,3,3,7,26,73,42,22,29,10,7,3,6,11,10,6,4,2,5,5,2,3,4,7,1,3,2,6,3,2,2,5,3,1,3,2,2,3,0,0,0,0,0
"sci",2007-201T18:30,"1/1563649472:174",2.382264651835760E+08,2.382300651835749E+08,-1,-1,-1,-1,-1,-1,-1,-1,2007-201T18:00,2007-201T19:00,2007,201.7708,5.566,-0.123,1.697,0,0,0,0,0,0,0,0,15,34,62,129,149,663,825,874,819,433,219,93,50,32,24,25,36,21,12,29,31,68,86,90,52,28,9,12,10,7,10,11,6,10,5,11,11,6,5,11,5,8,3,2,10,7,7,7,9,7,16,19,14,16,9,9,7,5,8,12,8,19,30,79,140,132,117,94,46,30,18,18,4,9,16,11,11,9,5,8,10,4,6,5,4,6,5,5,7,4,3,9,4,2,6,4,5,0,0,0,0,0
"sci",2007-201T19:30,"1/1563653072:180",2.382300651835749E+08,2.382336651835738E+08,-1,-1,-1,-1,-1,-1,-1,-1,2007-201T19:00,2007-201T20:00,2007,201.8125,5.437,-0.166,2.295,0,0,0,0,0,0,0,0,11,13,25,30,62,242,480,752,695,335,158,72,41,29,22,22,11,9,9,18,22,34,90,76,79,37,19,9,12,11,9,4,14,8,9,9,13,4,10,5,7,7,3,6,3,6,7,11,3,15,13,21,13,15,11,15,10,12,14,11,13,26,25,49,72,70,68,54,34,23,15,17,11,13,4,16,10,7,5,12,6,16,9,7,4,10,10,7,3,4,6,5,5,4,8,3,3,0,0,0,0,0
"sci",2007-201T20:30,"1/1563656672:186",2.382336651835738E+08,2.382372651835727E+08,-1,-1,-1,-1,-1,-1,-1,-1,2007-201T20:00,2007-201T21:00,2007,201.8542,5.371,-0.205,2.914,0,0,0,0,0,0,0,0,13,17,25,24,54,213,480,821,830,435,155,62,34,30,19,18,20,20,12,16,25,36,104,128,85,42,14,18,16,9,7,11,6,10,12,10,11,13,10,14,7,13,10,10,8,3,11,7,11,10,13,20,17,10,15,18,10,12,10,12,24,22,39,87,123,129,120,79,62,50,47,27,25,22,16,17,16,22,16,13,14,12,19,12,15,5,6,7,13,17,8,9,8,6,6,10,8,0,0,0,0,0
"sci",2007-201T21:30,"1/1563660272:192",2.382372651835727E+08,2.382408651835715E+08,-1,-1,-1,-1,-1,-1,-1,-1,2007-201T21:00,2007-201T22:00,2007,201.8958,5.370,-0.240,3.542,0,0,0,0,0,0,0,0,4,10,15,10,17,84,194,347,358,182,75,34,17,16,14,17,9,7,6,8,10,21,43,54,35,17,10,8,13,3,8,5,9,0,4,7,5,9,6,5,5,7,9,9,10,10,12,9,10,8,10,8,10,20,14,14,7,4,13,11,13,24,27,50,62,54,44,50,37,23,16,17,17,19,14,12,13,12,13,6,18,9,11,13,8,12,14,14,7,5,3,2,4,5,8,8,7,0,0,0,0,0
"sci",2007-201T22:30,"1/1563663872:198",2.382408651835715E+08,2.382444651835704E+08,-1,-1,-1,-1,-1,-1,-1,-1,2007-201T22:00,2007-201T23:00,2007,201.9375,5.436,-0.268,4.162,0,0,0,0,0,0,0,0,5,7,11,6,13,35,92,145,143,62,27,15,17,13,3,10,4,11,7,8,8,7,22,32,14,19,5,3,10,2,2,5,4,5,5,2,2,3,2,5,7,8,8,6,8,4,4,7,5,7,4,9,13,8,11,12,10,8,12,5,10,9,11,16,21,24,16,16,7,21,9,11,11,16,10,5,8,11,8,4,7,9,10,3,6,3,7,7,6,8,5,5,12,4,9,5,3,0,0,0,0,0